TimeAKDT,TemperatureF,Dew PointF,Humidity,Sea Level PressureIn,VisibilityMPH,Wind Direction,Wind SpeedMPH,Gust SpeedMPH,PrecipitationIn,Events,Conditions,WindDirDegrees,DateUTC
12:16 AM,51.8,46.4,82,29.69,10.0,Calm,Calm,-,N/A,,Clear,0,2013-08-18 08:16:00
12:36 AM,51.8,46.4,82,29.69,10.0,Calm,Calm,-,N/A,,Clear,0,2013-08-18 08:36:00
12:56 AM,48.2,44.6,87,29.69,10.0,Calm,Calm,-,N/A,,Clear,0,2013-08-18 08:56:00
1:16 AM,48.2,46.4,93,29.69,10.0,Calm,Calm,-,N/A,,Clear,0,2013-08-18 09:16:00
1:36 AM,50.0,46.4,87,29.69,10.0,Calm,Calm,-,N/A,,Clear,0,2013-08-18 09:36:00
1:56 AM,46.4,42.8,87,29.69,10.0,SE,3.5,-,N/A,,Clear,130,2013-08-18 09:56:00
2:16 AM,44.6,42.8,93,29.69,10.0,SE,4.6,-,N/A,,Clear,140,2013-08-18 10:16:00
2:36 AM,44.6,42.8,93,29.69,10.0,ESE,4.6,-,N/A,,Clear,110,2013-08-18 10:36:00
2:56 AM,46.4,44.6,93,29.69,10.0,ESE,4.6,-,N/A,,Clear,110,2013-08-18 10:56:00
3:16 AM,46.4,42.8,87,29.69,10.0,East,3.5,-,N/A,,Clear,100,2013-08-18 11:16:00
3:36 AM,42.8,39.2,87,29.70,10.0,East,3.5,-,N/A,,Clear,100,2013-08-18 11:36:00
3:56 AM,44.6,39.2,81,29.69,10.0,East,5.8,-,N/A,,Clear,90,2013-08-18 11:56:00
4:16 AM,46.4,42.8,87,29.69,10.0,East,4.6,-,N/A,,Clear,100,2013-08-18 12:16:00
4:36 AM,42.8,39.2,87,29.69,10.0,ESE,4.6,-,N/A,,Clear,120,2013-08-18 12:36:00
4:56 AM,39.2,37.4,93,29.69,10.0,ESE,3.5,-,N/A,,Clear,120,2013-08-18 12:56:00
5:16 AM,41.0,37.4,87,29.69,10.0,ESE,4.6,-,N/A,,Clear,120,2013-08-18 13:16:00
5:36 AM,39.2,35.6,87,29.69,10.0,SE,5.8,-,N/A,,Clear,130,2013-08-18 13:36:00
5:56 AM,39.2,37.4,93,29.69,10.0,SE,5.8,-,N/A,,Clear,130,2013-08-18 13:56:00
6:16 AM,37.4,35.6,93,29.69,10.0,ESE,4.6,-,N/A,,Clear,120,2013-08-18 14:16:00
6:36 AM,37.4,35.6,93,29.69,10.0,SE,4.6,-,N/A,,Clear,130,2013-08-18 14:36:00
6:56 AM,39.2,37.4,93,29.69,10.0,ESE,3.5,-,N/A,,Clear,110,2013-08-18 14:56:00
7:16 AM,39.2,35.6,87,29.69,10.0,SE,4.6,-,N/A,,Clear,140,2013-08-18 15:16:00
7:36 AM,39.2,35.6,87,29.69,10.0,SE,4.6,-,N/A,,Clear,130,2013-08-18 15:36:00
7:56 AM,39.2,37.4,93,29.69,10.0,SE,4.6,-,N/A,,Clear,140,2013-08-18 15:56:00
8:16 AM,39.2,37.4,93,29.69,10.0,ESE,5.8,-,N/A,,Clear,120,2013-08-18 16:16:00
8:36 AM,42.8,39.2,87,29.69,10.0,ESE,4.6,-,N/A,,Clear,110,2013-08-18 16:36:00
8:56 AM,44.6,41.0,87,29.69,10.0,ESE,4.6,-,N/A,,Clear,120,2013-08-18 16:56:00
9:16 AM,44.6,42.8,93,29.69,10.0,SE,5.8,-,N/A,,Clear,130,2013-08-18 17:16:00
9:36 AM,48.2,42.8,82,29.69,10.0,ESE,4.6,-,N/A,,Clear,110,2013-08-18 17:36:00
9:56 AM,48.2,44.6,87,29.70,10.0,ESE,3.5,-,N/A,,Scattered Clouds,110,2013-08-18 17:56:00
10:16 AM,48.2,44.6,87,29.69,10.0,SE,3.5,-,N/A,,Scattered Clouds,130,2013-08-18 18:16:00
10:36 AM,51.8,44.6,76,29.69,10.0,SE,3.5,-,N/A,,Partly Cloudy,130,2013-08-18 18:36:00
10:56 AM,51.8,46.4,82,29.69,10.0,SE,4.6,-,N/A,,Mostly Cloudy,140,2013-08-18 18:56:00
11:16 AM,53.6,46.4,77,29.69,10.0,Calm,Calm,-,N/A,,Overcast,0,2013-08-18 19:16:00
11:36 AM,55.4,44.6,67,29.69,10.0,Calm,Calm,-,N/A,,Mostly Cloudy,0,2013-08-18 19:36:00
11:56 AM,53.6,44.6,72,29.69,10.0,Calm,Calm,-,N/A,,Overcast,0,2013-08-18 19:56:00
12:16 PM,55.4,44.6,67,29.69,10.0,Calm,Calm,-,N/A,,Overcast,0,2013-08-18 20:16:00
12:36 PM,55.4,44.6,67,29.68,10.0,West,3.5,-,N/A,,Scattered Clouds,270,2013-08-18 20:36:00
12:56 PM,55.4,46.4,72,29.68,10.0,Calm,Calm,-,N/A,,Partly Cloudy,0,2013-08-18 20:56:00
1:16 PM,55.4,48.2,77,29.68,10.0,SW,3.5,-,N/A,,Clear,230,2013-08-18 21:16:00
1:36 PM,55.4,46.4,72,29.68,10.0,WSW,3.5,-,N/A,,Clear,250,2013-08-18 21:36:00
1:56 PM,55.4,48.2,77,29.68,10.0,West,6.9,-,N/A,,Partly Cloudy,260,2013-08-18 21:56:00
2:16 PM,57.2,50.0,77,29.68,10.0,West,13.8,-,N/A,,Scattered Clouds,260,2013-08-18 22:16:00
2:36 PM,57.2,50.0,77,29.67,10.0,WSW,15.0,-,N/A,,Scattered Clouds,250,2013-08-18 22:36:00
2:56 PM,57.2,48.2,72,29.67,10.0,WSW,16.1,-,N/A,,Partly Cloudy,250,2013-08-18 22:56:00
3:16 PM,57.2,48.2,72,29.67,10.0,WSW,13.8,-,N/A,,Partly Cloudy,250,2013-08-18 23:16:00
3:36 PM,57.2,50.0,77,29.66,10.0,WSW,11.5,-,N/A,,Clear,250,2013-08-18 23:36:00
3:56 PM,57.2,48.2,72,29.66,10.0,West,8.1,-,N/A,,Clear,260,2013-08-18 23:56:00
4:16 PM,57.2,48.2,72,29.65,10.0,West,8.1,-,N/A,,Partly Cloudy,260,2013-08-19 00:16:00
4:36 PM,57.2,48.2,72,29.65,10.0,West,6.9,-,N/A,,Mostly Cloudy,260,2013-08-19 00:36:00
4:56 PM,57.2,50.0,77,29.65,10.0,West,6.9,-,N/A,,Overcast,260,2013-08-19 00:56:00
5:16 PM,57.2,50.0,77,29.64,10.0,West,9.2,-,N/A,,Overcast,260,2013-08-19 01:16:00
5:36 PM,55.4,48.2,77,29.64,10.0,West,10.4,-,N/A,,Mostly Cloudy,260,2013-08-19 01:36:00
5:56 PM,55.4,48.2,77,29.64,10.0,West,8.1,-,N/A,,Mostly Cloudy,260,2013-08-19 01:56:00
6:16 PM,55.4,48.2,77,29.63,10.0,West,8.1,-,N/A,,Mostly Cloudy,270,2013-08-19 02:16:00
6:36 PM,55.4,46.4,72,29.63,10.0,West,5.8,-,N/A,,Partly Cloudy,280,2013-08-19 02:36:00
6:56 PM,55.4,46.4,72,29.63,10.0,WNW,5.8,-,N/A,,Clear,290,2013-08-19 02:56:00
7:16 PM,55.4,46.4,72,29.62,10.0,WNW,3.5,-,N/A,,Clear,290,2013-08-19 03:16:00
7:36 PM,55.4,46.4,72,29.62,10.0,WSW,3.5,-,N/A,,Clear,250,2013-08-19 03:36:00
7:56 PM,55.4,46.4,72,29.62,10.0,WSW,5.8,-,N/A,,Partly Cloudy,250,2013-08-19 03:56:00
8:16 PM,55.4,48.2,77,29.61,10.0,West,3.5,-,N/A,,Mostly Cloudy,260,2013-08-19 04:16:00
8:36 PM,55.4,48.2,77,29.61,10.0,West,3.5,-,N/A,,Overcast,270,2013-08-19 04:36:00
8:56 PM,55.4,48.2,77,29.61,10.0,Calm,Calm,-,N/A,,Overcast,0,2013-08-19 04:56:00
9:16 PM,55.4,48.2,77,29.61,10.0,Calm,Calm,-,N/A,,Overcast,0,2013-08-19 05:16:00
9:36 PM,55.4,48.2,77,29.60,10.0,Calm,Calm,-,N/A,,Overcast,0,2013-08-19 05:36:00
9:56 PM,55.4,48.2,77,29.60,10.0,Calm,Calm,-,N/A,,Overcast,0,2013-08-19 05:56:00
10:16 PM,55.4,48.2,77,29.59,10.0,WSW,3.5,-,N/A,,Overcast,240,2013-08-19 06:16:00
10:36 PM,55.4,48.2,77,29.59,10.0,SW,3.5,-,N/A,,Overcast,220,2013-08-19 06:36:00
10:56 PM,55.4,48.2,77,29.58,10.0,Calm,Calm,-,N/A,,Overcast,0,2013-08-19 06:56:00
11:16 PM,53.6,48.2,82,29.58,10.0,East,4.6,-,N/A,,Overcast,100,2013-08-19 07:16:00
11:36 PM,53.6,48.2,82,29.58,10.0,East,3.5,-,N/A,,Overcast,90,2013-08-19 07:36:00
11:56 PM,53.6,48.2,82,29.57,10.0,ESE,4.6,-,N/A,,Overcast,110,2013-08-19 07:56:00